SCP
0 0 0 0 0 0 0 0 0 0 0 0 0 0 0 0 0 0 0 0 0 0 0 0 0 0 0 0 0 0 0 0 0 0 0 0 0 0 0 0 0 0 0 0 0 0 0 0 0
0 0 0 0 0 0 0 0 0 0 0 0 0 0 0 0 0 0 0 0 0 0 0 0 0 0 0 0 0 0 0 0 0 0 0 0 0 0 0 0 0 0 0 0 0 0 0 0 0
0 0 0 0 0 0 0 0 0 0 0 0 0 0 0 0 0 0 0 0 0 0 0 0 0 0 0 0 0 0 0 0 0 0 0 0 0 0 0 0 0 0 0 0 0 0 0 0 0
0 0 0 0 0 0 0 0 0 0 0 0 0 0 0 0 0 0 0 0 0 0 0 0 0 0 0 0 0 0 0 0 0 0 0 0 0 0 0 0 0 0 0 0 0 0 0 0 0
0 0 0 0 0 0 0 0 0 0 0 0 0 0 0 0 0 0 0 0 0 0 0 0 0 0 0 0 0 0 0 0 0 0 0 0 0 0 0 0 0 0 0 0 0 0 0 0 0
0 0 0 0 0 0 0 0 0 0 0 0 0 0 0 0 0 0 0 0 0 0 0 0 0 0 0 0 0 0 0 0 0 0 0 0 0 0 0 0 0 0 0 0 0 0 0 0 0
0 0 0 0 0 0 0 0 0 0 0 0 0 0 0 0 0 0 0 0 0 0 0 0 0 0 0 0 0 0 0 0 0 0 0 0 0 0 0 0 0 0 0 0 0 0 0 0 0
0 0 0 0 0 0 0 0 0 0 0 0 0 0 0 0 0 0 0 0 0 0 0 0 0 0 0 0 0 0 0 0 0 0 0 0 0 0 0 0 0 0 0 0 0 0 0 0 0
0 0 0 0 0 0 0 0 0 0 0 0 0 0 0 0 0 0 0 0 0 0 0 0 0 0 0 0 0 0 0 0 0 0 0 0 0 0 0 0 0 0 0 0 0 0 0 0 0
0 0 0 0 0 0 0 0 0 0 0 0 0 0 0 0 0 0 0 0 0 0 0 0 0 0 0 0 0 0 0 0 0 0 0 0 0 0 0 0 0 0 0 0 0 0 0 0 0
0 0 0 0 0 0 0 0 0 0 0 0 0 0 0 0 0 0 0 0 0 0 0 0 0 0 0 0 0 0 0 0 0 0 0 0 0 0 0 0 0 0 0 0 0 0 0 0 0
0 0 0 0 0 0 0 0 0 0 0 0 0 0 0 0 0 0 0 0 0 0 0 0 0 0 0 0 0 0 0 0 0 0 0 0 0 0 0 0 0 0 0 0 0 0 0 0 0
0 0 0 0 0 0 0 0 0 0 0 0 0 0 0 0 0 0 0 0 0 0 0 0 0 0 0 0 0 0 0 0 0 0 0 0 0 0 0 0 0 0 0 0 0 0 0 0 0
0 0 0 0 0 0 0 0 0 0 0 0 0 0 0 0 0 0 0 0 0 0 0 0 0 0 0 0 0 0 0 0 0 0 0 0 0 0 0 0 0 0 0 0 0 0 0 0 0
0 0 0 0 0 0 0 0 0 0 0 0 0 0 0 0 0 0 0 0 0 0 0 0 0 0 0 0 0 0 0 0 0 0 0 0 0 0 0 0 0 0 0 0 0 0 0 0 0
0 0 0 0 0 0 0 0 0 0 0 0 0 0 0 0 0 0 0 0 0 0 0 0 0 0 0 0 0 0 0 0 0 0 0 0 0 0 0 0 0 0 0 0 0 0 0 0 0
0 0 0 0 0 0 0 0 0 0 0 0 0 0 0 0 0 0 0 0 0 0 0 0 0 0 0 0 0 0 0 0 0 0 0 0 0 0 0 0 0 0 0 0 0 0 0 0 0
0 0 0 0 0 0 0 0 0 0 0 0 0 0 0 0 0 0 0 0 0 0 0 0 0 0 0 0 0 0 0 0 0 0 0 0 0 0 0 0 0 0 0 0 0 0 0 0 0
0 0 0 0 0 0 0 0 0 0 0 0 0 0 0 0 0 0 0 0 0 0 0 0 0 0 0 0 0 0 0 0 0 0 0 0 0 0 0 0 0 0 0 0 0 0 0 0 0
0 0 0 0 0 0 0 0 0 0 0 0 0 0 0 0 0 0 0 0 0 0 0 0 0 0 0 0 0 0 0 0 0 0 0 0 0 0 0 0 0 0 0 0 0 0 0 0 0
0 0 0 0 0 0 0 0 0 0 0 0 0 0 0 0 0 0 0 0 0 0 0 0 0 0 0 0 0 0 0 0 0 0 0 0 0 0 0 0 0 0 0 0 0 0 0 0 0
0 0 0 0 0 0 0 0 0 0 0 0 0 0 0 0 0 0 0 0 0 0 0 0 0 0 0 0 0 0 0 0 0 0 0 0 0 0 0 0 0 0 0 0 0 0 0 0 0
0 0 0 0 0 0 0 0 0 0 0 0 0 0 0 0 0 0 0 0 0 0 0 0 0 0 0 0 0 0 0 0 0 0 0 0 0 0 0 0 0 0 0 0 0 0 0 0 0
0 0 0 0 0 0 0 0 0 0 0 0 0 0 0 0 0 0 0 0 0 0 0 0 0 0 0 0 0 0 0 0 0 0 0 0 0 0 0 0 0 0 0 0 0 0 0 0 0
0 0 0 0 0 0 0 0 0 0 0 0 0 0 0 0 0 0 0 0 0 0 0 0 0 0 0 0 0 0 0 0 0 0 0 0 0 0 0 0 0 0 0 0 0 0 0 0 0
0 0 0 0 0 0 0 0 0 0 0 0 0 0 0 0 0 0 0 0 0 0 0 0 0 0 0 0 0 0 0 0 0 0 0 0 0 0 0 0 0 0 0 0 0 0 0 0 0
0 0 0 0 0 0 0 0 0 0 0 0 0 0 0 0 0 0 0 0 0 0 0 0 0 0 0 0 0 0 0 0 0 0 0 0 0 0 0 0 0 0 0 0 0 0 0 0 0
0 0 0 0 0 0 0 0 0 0 0 0 0 0 0 0 0 0 0 0 0 0 0 0 0 0 0 0 0 0 0 0 0 0 0 0 0 0 0 0 0 0 0 0 0 0 0 0 0
0 0 0 0 0 0 0 0 0 0 0 0 0 0 0 0 0 0 0 0 0 0 0 0 0 0 0 0 0 0 0 0 0 0 0 0 0 0 0 0 0 0 0 0 0 0 0 0 0
0 0 0 0 0 0 0 0 0 0 0 0 0 0 0 0 0 0 0 0 0 0 0 0 0 0 0 0 0 0 0 0 0 0 0 0 0 0 0 0 0 0 0 0 0 0 0 0 0
Wind_Speed
3 2 2 3 2 4 8 6 5 5 5 7 7 6 7 8 7 7 5 4 4 4 4 4 5 5 6 6 6 6 7 7 8 8 9 9 9 8 8 7 7 7 8 7 7 7 8 8 8
1 1 2 2 0 5 8 6 7 7 5 4 6 6 7 8 7 6 5 4 4 4 4 5 5 5 5 6 7 7 7 7 7 8 8 9 8 8 8 8 8 8 8 7 7 8 8 9 9
1 1 1 1 5 7 7 5 6 6 5 3 5 6 6 6 5 5 5 4 4 5 4 6 5 6 6 7 7 7 7 7 8 7 8 8 8 8 8 8 8 8 8 8 8 8 8 9 8
2 1 1 5 12 9 7 6 5 6 5 5 5 7 7 6 4 5 5 4 5 5 5 7 6 6 7 7 7 7 7 7 7 7 7 8 8 8 8 8 8 8 9 9 9 8 8 8 8
1 0 5 8 10 8 7 6 5 6 6 6 6 8 9 6 6 6 5 4 5 5 6 7 7 6 6 7 7 7 8 7 7 8 7 8 8 8 9 9 9 9 10 10 10 9 9 9 8
1 1 5 8 10 8 7 6 6 8 8 7 7 8 8 6 6 6 5 4 5 5 5 6 7 6 6 7 7 7 7 8 8 8 8 8 8 8 8 9 9 10 10 10 10 10 10 9 9
2 4 7 9 8 7 6 5 6 6 7 6 5 7 7 6 5 5 4 4 5 5 5 5 5 6 6 6 6 7 7 8 9 9 9 9 9 9 9 9 9 9 10 10 10 10 10 11 11
1 4 8 7 7 7 6 5 5 5 6 5 2 5 7 6 5 4 4 4 4 4 5 5 5 5 5 6 7 6 7 8 9 9 9 8 8 8 8 8 9 10 10 11 10 11 11 12 12
1 4 7 6 5 7 6 6 5 4 6 5 5 6 7 8 6 5 5 4 4 4 4 4 5 5 5 5 6 5 6 6 5 7 7 4 5 7 6 11 9 9 10 11 10 10 10 10 11
2 6 8 6 6 7 6 6 5 5 6 6 7 7 8 7 6 5 4 5 5 5 4 4 4 4 5 4 4 3 4 5 5 5 5 4 5 6 6 9 9 9 9 10 10 8 6 3 5
6 8 8 7 6 6 6 6 4 4 5 4 6 8 8 6 5 4 4 4 4 4 4 4 4 4 4 3 3 3 3 3 4 5 5 4 4 4 4 3 5 5 5 5 6 4 4 5 5
8 8 7 7 6 6 6 6 5 4 5 4 5 6 7 6 5 4 4 4 4 4 3 4 4 4 4 4 3 2 3 3 3 4 5 3 3 3 4 3 4 3 3 4 4 4 6 6 6
8 8 7 7 6 6 6 5 4 4 3 4 6 6 5 4 4 4 4 4 4 3 3 4 3 3 3 3 2 3 3 3 4 3 3 4 3 3 4 3 3 4 4 4 4 5 6 6 6
7 8 7 6 6 5 5 4 3 3 3 5 6 5 5 4 4 3 3 3 3 3 4 4 3 3 3 3 3 3 3 3 3 3 3 4 3 3 3 4 4 4 3 3 4 5 5 5 5
8 7 6 4 3 3 3 4 2 2 4 5 5 5 5 4 3 3 3 2 3 3 4 4 3 3 3 3 3 3 2 3 3 3 3 4 3 3 3 3 3 3 3 4 4 5 4 4 5
5 4 4 4 2 2 3 2 4 3 4 4 4 5 4 4 3 3 3 3 3 3 4 4 3 3 4 3 2 2 2 3 2 2 2 3 3 3 2 2 3 3 3 3 3 3 4 4 4
4 3 3 4 2 2 2 1 3 3 4 3 3 4 4 4 3 3 3 3 3 3 4 4 3 3 3 3 2 2 2 2 2 2 2 2 3 2 3 2 2 3 3 3 3 3 3 4 4
3 2 2 1 3 3 3 2 3 3 4 4 3 3 4 3 3 4 3 3 3 3 3 4 3 2 3 2 2 2 2 2 1 1 1 2 2 2 2 2 2 3 2 3 3 4 3 3 3
1 1 1 1 1 3 3 3 2 4 4 4 4 4 4 4 4 4 4 4 4 3 3 3 3 3 2 2 1 1 1 1 1 1 2 1 1 1 1 1 2 2 2 3 3 3 4 3 2
4 3 2 2 1 3 3 3 3 4 5 4 4 4 4 4 5 5 5 5 4 4 3 3 2 2 2 1 1 0 1 1 1 1 1 1 1 1 1 1 2 2 2 3 3 3 1 2 1
4 4 2 1 2 3 4 4 4 4 5 4 4 4 3 4 5 6 6 5 5 4 4 2 2 2 2 2 1 1 1 1 1 2 1 1 1 0 1 1 1 2 2 3 3 3 2 1 1
3 1 3 3 4 2 3 3 2 4 5 5 5 5 4 4 5 5 6 6 6 5 4 3 3 2 2 2 1 1 0 0 1 1 1 1 1 1 1 1 1 2 2 3 3 3 2 2 1
1 1 2 4 4 4 4 5 1 3 4 4 5 5 5 5 5 5 6 6 5 5 4 3 3 3 2 2 1 1 0 0 0 0 1 1 1 1 1 1 1 2 2 2 2 2 2 2 2
4 4 4 4 5 4 2 5 1 2 1 1 4 5 6 6 5 5 5 6 5 5 4 4 4 3 2 2 2 1 1 1 1 1 1 1 1 1 1 0 1 1 1 2 2 2 3 2 2
5 5 4 4 4 1 1 4 1 3 2 2 2 4 6 6 6 6 6 7 6 6 5 5 4 4 3 3 2 2 1 2 2 1 1 1 1 1 1 1 1 1 1 1 2 2 2 3 3
4 6 5 4 2 1 3 4 1 2 1 1 1 3 5 6 6 6 6 6 6 6 6 5 5 4 3 3 3 2 2 2 1 1 1 1 1 1 1 1 0 0 0 1 1 2 2 2 2
4 4 4 5 4 5 3 2 2 3 1 2 2 4 5 6 7 7 6 6 6 6 6 5 5 4 4 3 3 2 2 2 2 2 2 1 1 1 1 1 1 1 1 1 1 1 2 2 2
3 2 4 5 4 4 3 4 2 3 1 2 2 3 4 5 6 7 6 6 5 5 5 5 5 4 4 4 3 2 2 2 2 2 2 2 2 1 2 2 1 1 1 1 1 1 1 2 1
5 5 5 4 5 5 4 1 2 1 1 1 1 2 4 5 6 6 6 5 5 5 5 5 5 4 4 4 3 4 3 3 3 2 2 3 2 2 2 2 2 1 2 2 2 1 2 2 2
5 5 6 6 5 5 6 2 3 1 1 2 1 2 3 5 5 6 6 6 5 5 5 5 4 4 4 4 4 4 3 4 4 3 3 4 3 3 3 2 2 1 1 2 2 2 2 2 1
Wind_Direction
171 170 226 238 204 89 69 62 56 69 65 56 57 59 60 46 32 63 75 57 50 59 64 75 52 50 49 50 54 56 55 56 58 57 59 60 63 68 68 69 73 78 84 85 86 87 87 87 83
158 203 235 254 285 95 75 62 65 60 83 90 72 67 70 64 53 76 83 63 57 60 58 57 55 51 52 54 53 55 58 58 60 59 59 59 64 66 65 65 70 73 78 79 80 82 84 85 83
151 253 311 31 58 63 82 70 76 81 78 76 83 62 56 62 62 72 72 75 73 65 59 66 52 57 61 60 56 57 60 61 61 60 61 62 65 67 67 69 74 74 75 75 78 81 83 85 85
218 185 89 81 82 69 79 88 98 111 90 68 90 87 78 57 58 73 83 76 72 70 69 76 64 60 59 60 60 62 64 63 63 63 64 65 68 68 69 68 75 77 78 77 75 75 78 81 83
240 100 103 95 86 84 77 78 90 88 85 81 87 96 90 76 75 81 81 71 68 68 73 79 73 63 58 59 59 60 62 63 62 63 65 64 67 68 68 69 75 75 75 75 72 69 71 75 78
136 119 110 100 98 96 86 83 90 87 92 96 95 96 88 90 85 80 74 67 63 68 72 86 94 71 57 57 58 59 60 63 65 64 63 64 66 71 70 71 75 77 77 76 72 69 69 73 77
76 85 95 105 109 101 87 83 76 87 89 82 89 98 105 102 87 87 80 71 64 68 70 71 82 98 99 74 58 57 60 63 66 67 64 64 65 70 73 76 77 79 78 80 77 76 75 76 77
52 112 110 107 109 95 97 97 75 72 83 84 72 92 108 111 110 108 94 78 72 74 75 70 68 58 69 86 81 66 66 66 69 70 68 72 82 82 81 84 78 79 82 81 79 79 79 76 74
164 120 105 103 105 105 113 107 93 88 98 94 74 68 92 115 125 119 107 95 87 81 74 67 68 63 59 61 78 89 91 83 94 94 88 87 79 79 84 68 72 80 83 82 80 80 83 85 86
89 95 89 89 98 110 108 99 110 119 107 105 102 100 113 127 129 118 104 96 91 81 70 69 67 65 65 62 69 63 71 75 67 68 73 68 71 67 68 85 80 85 90 95 85 83 94 88 87
81 88 101 102 102 110 108 101 101 109 94 93 113 122 129 131 126 116 102 89 83 79 67 58 63 63 64 70 64 59 62 69 72 69 71 72 79 88 80 90 106 102 102 89 95 92 68 66 63
98 91 99 105 108 110 105 105 95 74 68 76 107 124 133 135 129 117 99 85 82 78 68 58 51 64 66 67 65 66 69 67 70 68 63 66 69 67 71 74 76 77 78 75 69 68 72 65 63
101 101 102 108 113 109 107 103 91 79 84 104 119 130 134 132 129 116 103 106 101 94 91 74 60 54 66 68 63 75 74 67 75 66 59 68 72 72 78 83 80 75 76 80 76 72 72 66 57
104 111 115 117 119 119 117 105 103 88 115 123 130 132 133 131 131 127 121 100 95 97 92 84 77 73 63 72 75 71 72 79 69 68 59 71 77 79 79 83 82 75 72 73 79 82 77 69 64
130 125 122 117 131 134 156 118 98 103 140 138 142 135 131 134 141 138 120 108 95 96 95 88 79 81 77 71 69 73 72 73 69 61 56 70 72 84 86 83 89 88 91 92 85 85 77 78 78
155 160 138 121 151 165 227 102 102 139 161 153 149 142 149 148 154 140 129 124 108 97 94 97 96 86 81 77 75 78 79 72 71 68 62 65 71 77 86 90 91 98 98 97 92 85 82 77 71
184 165 124 127 157 182 222 119 128 166 182 178 173 165 171 161 166 149 146 137 118 110 105 104 94 86 88 86 86 68 73 73 60 56 63 70 75 80 90 91 97 104 110 107 98 88 80 83 79
163 165 150 134 139 190 211 210 155 180 204 197 194 193 188 183 175 162 156 149 139 128 119 114 111 92 90 89 85 82 71 69 59 46 54 58 73 92 105 131 127 123 125 114 110 108 97 87 89
199 215 207 88 141 222 236 244 209 194 208 212 204 206 202 192 179 165 163 169 166 153 137 120 129 114 101 92 85 61 65 75 86 75 66 76 80 110 114 142 137 149 138 131 136 127 123 115 109
201 222 206 148 154 246 258 255 231 202 212 220 222 214 204 189 185 172 176 178 180 160 157 138 131 126 116 93 53 83 61 47 65 78 79 61 72 90 130 158 154 157 149 155 150 154 141 126 180
217 249 252 234 206 220 264 234 193 183 202 206 220 226 212 196 194 180 180 179 176 169 165 159 151 144 131 120 110 107 116 166 139 112 97 61 53 100 196 154 157 167 178 168 175 181 184 177 184
243 244 243 229 242 231 268 290 156 178 194 206 215 219 216 196 199 190 183 182 177 171 170 169 158 149 132 137 139 137 310 35 48 63 113 134 120 127 162 166 179 184 182 183 194 192 199 213 207
24 139 214 241 263 265 239 269 152 162 208 208 208 211 207 194 195 193 187 181 173 163 165 172 161 154 149 150 148 235 258 339 89 120 133 144 118 103 134 166 182 193 195 201 207 209 216 215 237
148 173 183 217 243 252 258 263 269 139 266 220 197 201 197 189 184 185 179 177 169 162 165 174 174 167 169 181 187 212 214 227 203 196 164 160 135 130 114 167 197 199 200 204 214 214 211 229 231
209 234 233 218 218 234 93 258 278 60 354 309 239 196 188 184 180 176 173 175 174 175 178 181 182 180 184 199 208 216 228 233 220 211 189 195 158 150 137 187 227 203 197 202 215 216 212 211 218
219 257 282 296 298 313 203 248 79 73 338 304 219 184 180 180 181 179 175 176 179 181 184 189 189 190 190 205 209 218 218 238 240 235 222 210 197 168 153 194 236 186 195 193 199 223 207 210 208
208 234 304 290 283 275 239 229 185 154 157 138 155 168 178 180 181 179 176 180 182 185 188 196 198 196 197 205 212 220 218 222 225 227 217 210 199 178 181 185 191 173 186 196 197 227 210 212 217
285 221 221 250 274 271 255 247 229 165 159 168 177 184 183 179 177 176 179 184 187 187 188 192 201 204 204 212 210 207 220 218 223 219 209 210 202 191 203 211 188 173 179 187 201 227 245 218 195
190 209 234 251 273 283 285 263 63 65 46 250 210 201 190 184 180 179 181 183 183 181 188 193 199 206 208 212 209 209 214 218 212 212 213 221 213 207 214 218 222 197 195 194 190 216 210 213 200
248 241 232 252 246 261 280 278 110 203 306 290 271 200 187 183 182 180 177 179 182 185 191 198 202 205 209 215 214 219 216 215 214 210 210 216 214 217 224 215 221 219 227 229 208 206 215 221 222